#timestamp,LO_Frequency,Hit,StdDev 
1697486415.8,286047005.0,N
1697486435.6,286047004.8,N
1697486455.5,286047004.5,N
1697486475.3,286047007.5,Y
1697486495.2,286047002.0,P
1697486515.9,286047001.5,N
1697486535.7,286047003.8,P
1697486555.6,286047005.9,Y
1697486575.4,286047004.1,P
1697486595.3,286047005.7,P
1697486615.1,286047002.9,N
1697486616.0,286047002.9,N
1697486635.8,286047006.0,Y
1697486655.7,286046998.2,P
1697486675.5,286046998.1,N
1697486695.3,286046999.1,N
1697486715.2,286046996.7,N
1697486735.0,286046999.4,N
1697486735.9,286046999.4,N
1697486755.8,286046997.1,N
1697486775.6,286046996.9,N
1697486795.4,286046996.8,N
1697486815.3,286046997.9,N
1697486835.1,286046995.5,N
1697486855.8,286046998.0,N
1697486875.7,286046996.7,N
1697486895.5,286046997.1,N
1697486915.4,286046996.6,N
1697486935.2,286046999.2,N
1697486955.0,286046999.5,N
1697486955.9,286046999.5,N
1697486975.8,286046999.4,N
1697486995.6,286046999.0,N
1697487015.4,286046998.1,N
1697487035.3,286046998.1,N
1697487055.1,286046998.4,N
1697487075.9,286046998.5,N
1697487095.7,286047000.9,N
1697487115.5,286047000.8,N
1697487135.4,286047000.3,N
1697487155.2,286047000.3,N
1697487175.0,286046999.9,N
1697487176.0,286046999.9,N
1697487195.8,286047002.6,N
1697487215.6,286047002.3,N
1697487235.5,286047001.3,N
1697487255.3,286047004.3,N
1697487275.1,286047004.2,N
1697487295.9,286047003.4,N
1697487315.7,286047003.4,N
1697487335.6,286047003.5,N
1697487355.4,286047005.7,N
1697487375.2,286047007.6,N
1697487395.1,286047005.3,N
1697487396.0,286047005.3,N
1697487415.8,286047005.6,N
1697487435.6,286047005.5,N
1697487455.5,286047003.4,N
1697487475.3,286047003.3,N
1697487495.2,286047005.5,N
1697487515.9,286047005.8,N
1697487535.7,286047007.3,N
1697487555.6,286047009.0,Y
1697487575.4,286047005.7,P
1697487595.2,286047007.5,P
1697487615.1,286047007.6,P
1697487616.0,286047007.6,Y
1697487635.8,286047001.0,P
1697487655.7,286046998.3,N
1697487675.5,286046999.4,N
1697487695.3,286047000.7,N
1697487715.2,286047002.7,N
1697487735.0,286047002.8,N
1697487735.9,286047002.8,N
1697487755.8,286047000.7,N
1697487775.6,286047002.3,N
1697487795.4,286047001.5,N
1697487815.3,286047001.7,N
1697487835.1,286047000.1,N
1697487855.8,286046998.2,N
1697487875.7,286046998.6,N
1697487895.5,286046999.0,N
1697487915.4,286046999.5,N
1697487935.2,286046999.4,N
1697487955.0,286047000.3,N
1697487955.9,286047000.3,N
1697487975.8,286047001.8,N
1697487995.6,286047002.3,N
1697488015.4,286047001.3,N
1697488035.3,286047003.7,N
1697488055.1,286047003.9,N
1697488075.9,286047002.9,N
1697488095.7,286047005.6,N
1697488115.5,286047003.1,N
1697488135.4,286047003.6,N
1697488155.2,286047003.1,N
1697488175.0,286047003.8,N
1697488175.9,286047003.8,N
1697488195.8,286047003.9,N
1697488215.6,286047003.8,N
1697488235.5,286047005.5,N
1697488255.3,286047007.6,Y
1697488275.1,286047004.7,P
1697488295.9,286047005.0,P
1697488315.7,286047004.9,P
1697488335.6,286047005.7,Y
1697488355.4,286046999.3,P
1697488375.2,286046996.7,N
1697488395.1,286046995.3,N
1697488396.0,286046995.3,N
1697488415.8,286046993.4,N
1697488435.7,286046995.6,N
1697488455.5,286046996.1,N
1697488475.3,286046996.0,N
1697488495.2,286046996.4,N
1697488515.9,286046996.0,N
1697488535.7,286046995.9,N
1697488555.6,286046993.4,N
1697488575.4,286046993.3,N
1697488595.2,286046996.3,N
1697488615.1,286046995.7,N
1697488616.0,286046995.7,N
1697488635.8,286046995.8,N
1697488655.7,286046995.9,N
1697488675.5,286046995.8,N
1697488695.3,286046997.7,N
1697488715.2,286046996.5,N
1697488735.0,286046999.2,N
1697488735.9,286046999.2,N
1697488755.7,286046996.6,N
1697488775.6,286046996.8,N
1697488795.4,286046999.0,N
1697488815.3,286046998.3,N
1697488835.1,286046998.5,N
1697488836.0,286046998.5,N
1697488855.8,286047000.7,N
1697488875.7,286047000.5,N
1697488895.5,286047000.5,N
1697488915.3,286047000.1,N
1697488935.2,286047001.8,N
1697488955.0,286047003.2,N
1697488955.9,286047003.2,N
1697488975.8,286047003.3,N
1697488995.6,286047001.9,N
1697489015.4,286047000.7,N
1697489035.3,286047000.9,N
1697489055.1,286046999.9,N
1697489075.8,286047002.6,N
1697489095.7,286047002.5,N
1697489115.5,286047002.8,N
1697489135.4,286047003.9,N
1697489155.2,286047003.6,N
1697489175.0,286047003.7,N
1697489175.9,286047003.7,N
1697489195.8,286047005.5,N
1697489215.6,286047005.2,N
1697489235.4,286047004.3,N
1697489255.3,286047001.5,N
1697489275.1,286047004.3,N
1697489295.9,286047003.2,N
1697489315.7,286047003.8,N
1697489335.5,286047004.2,N
1697489355.4,286047005.8,N
1697489375.2,286047002.9,N
1697489395.0,286047002.1,N
1697489395.9,286047002.1,N
1697489415.8,286047000.1,N
1697489435.6,286047002.7,N
1697489455.5,286047002.8,N
1697489475.3,286047000.3,N
1697489495.1,286047000.9,N
1697489515.9,286046999.3,N
1697489535.7,286046999.4,N
1697489555.6,286046998.7,N
1697489575.4,286046998.7,N
1697489595.2,286046999.7,N
1697489615.1,286046998.2,N
1697489616.0,286046998.2,N
1697489635.8,286046999.1,N
1697489655.6,286046996.6,N
1697489675.5,286046996.9,N
1697489695.3,286046996.8,N
1697489715.2,286046998.3,N
1697489735.9,286047000.4,N
1697489755.7,286046999.7,N
1697489775.6,286047002.5,N
1697489795.4,286047002.7,N
1697489815.2,286047004.4,N
1697489835.1,286047003.7,N
1697489836.0,286047003.7,N
1697489855.8,286047001.3,N
1697489875.7,286047002.7,N
1697489895.5,286047000.3,N
1697489915.3,286046999.7,N
1697489935.2,286047000.5,N
1697489955.0,286047000.5,N
1697489955.9,286047000.5,N
1697489975.8,286047000.5,N
1697489995.6,286046999.5,N
